Hovedside
METAR-TAF:

METAR-TAF

Lufthavner :

Renton Municipal Airport

Renton, Washington, USA

breddegrad: 47-29-40N, lengdegrad: 122-12-46W, høyde over havet: 8 m

Gjeldene værobservasjon

Denne rapporten ble laget for 12 minutter siden, klokken 11:53 UTC
Flau vind
Temperatur 8°C
Luftfuktighet 93%
Trykk 1024 hPa
Sikt: 9.7 km
Skyfri himmel

METAR: KRNT 201153Z AUTO 00000KT 6SM CLR 08/07 A3024 RMK AO2 SLP246 T00780067 10100 20072 58001

Tid: 05:05 (12:05 UTC)


TAF: fraværende

Værobservasjoner og værvarsel for over 4000 flyplasser (METAR- og TAF-rapporter).

Tilgjengelige stasjoner er representert av de røde og gule prikkene på kartet.

Hold musepekeren over prikken for å se navnet på stasjonen.

Klikk så for å se værobservasjoner og -varsler.

For å forandre kartet kan du klikke på den grønne knappen med svart kryss for å zoome inn, på den grønne knappen med strek for å zoome ut, eller på de grønne pilene for å se tilstøtende kart.


METAR-TAF: